TO-108
1 44881U 19093C   25205.68610831  .00000894  00000-0  10910-3 0  9999
2 44881  97.7911 280.3911 0015247  84.5368 275.7586 14.85675179302770
FloripaSat 1
1 44885U 19093G   25205.81614545  .00004962  00000-0  41531-3 0  9997
2 44885  97.8182 293.5216 0011805  56.1895 304.0450 14.98869891303525
RS-44
1 44909U 19096E   25205.50797392  .00000019  00000-0  29653-4 0  9996
2 44909  82.5202 197.4278 0217198 190.2305 169.4341 12.79742221260433
UPMSat 2
1 46276U 20061E   25205.19337610  .00102511  00000-0  69217-3 0  9996
2 46276  97.2414 281.2577 0001440 154.8792 205.2544 15.74776350272470
SALSAT
1 46495U 20068K   25205.49022618  .00008030  00000-0  34149-3 0  9995
2 46495  97.8625 185.6165 0011435  16.1693 343.9905 15.23259105265367
CubeSX-Sirius-HSE
1 47951U 21022V   25157.62701764  .07883385  25648-5  89537-3 0  9993
2 47951  97.4004  72.1904 0010275 223.9924 136.0557 16.36879307233400
CubeSX-HSE
1 47952U 21022W   25157.69972699  .06655353  25454-5  93288-3 0  9992
2 47952  97.3980  72.5414 0010307 219.3637 140.6911 16.34906352233436
GRBAlpha
1 47959U 21022AD  25160.45426279  .07940347  25506-5  90589-3 0  9995
2 47959  97.3899  75.6235 0011032 227.2558 132.7812 16.36806138232695
TUBIN
1 48900U 21059X   25205.75246833  .00057497  00000-0  60561-3 0  9993
2 48900  97.6758  18.7764 0003450  77.1000 283.0644 15.64096720227092
LEDSAT
1 49069U 21073D   25205.74595861  .00089242  00000-0  84457-3 0  9996
2 49069  97.3863 289.3575 0007991 256.2676 103.7695 15.66649836218494
CUTE
1 49263U 21088D   25205.74341417  .00051193  00000-0  93944-3 0  9999
2 49263  97.4493 283.3578 0008301  79.9203 280.2984 15.49074173211413
TeikyoSat 4
1 49396U 21102B   25205.68082315  .00001545  00000-0  10479-3 0  9993
2 49396  97.4080 242.4790 0011970 346.6719  13.4191 15.07796599203342
Z-Sat
1 49399U 21102E   25205.67665276  .00004073  00000-0  22267-3 0  9995
2 49399  97.3773 245.8535 0016508 311.1180  48.8626 15.14718906203808
KOSEN 1
1 49402U 21102H   25205.68354453  .00006856  00000-0  31347-3 0  9993
2 49402  97.3676 249.6211 0013919 281.8698  78.0976 15.20778858204148
HO-113
1 50466U 21131B   25205.83020861  .00000494  00000-0  16804-3 0  9990
2 50466  98.5107 294.9628 0004236  18.2604 341.8736 14.40856889187965
Foresail-1
1 52766U 22057AL  25176.64799660  .13857605  27391-5  25307-3 0  9992
2 52766  97.5832 331.2310 0012137 233.7199 258.4922 16.46795272172486
SNUGLITE 2
1 52899U 22065F   25205.34834707  .00001055  00000-0  21360-3 0  9994
2 52899  98.1743 346.9009 0007027 342.6271  17.4689 14.63296294163033
UmKA 1 (RS40S)
1 57172U 23091G   25205.76741135  .00006444  00000-0  34046-3 0  9993
2 57172  97.5555 260.9188 0014620 172.1911 187.9552 15.15757424114328
CubeBel-2 (EU11S)
1 57175U 23091K   25205.80687343  .00009228  00000-0  43077-3 0  9998
2 57175  97.5554 262.3878 0012285 177.0801 183.0507 15.19992033114428
VERONIKA
1 58261U 23174F   25205.74542387  .00397813  00000-0  14313-2 0  9998
2 58261  97.4071 295.1288 0008002 236.6982 123.3523 15.87712821 95806
ENSO
1 58470U 23185J   25205.78744557  .00070964  00000-0  85969-3 0  9990
2 58470  97.3710 282.4971 0005482 259.2007 100.8633 15.60411688 92079
EIRSAT-1
1 58472U 23185L   25205.76657637  .00211138  00000-0  11983-2 0  9996
2 58472  97.3641 285.3417 0005904 245.6452 114.4199 15.78419880 92263
SONATE-2
1 59112U 24043Q   25205.30462175  .00019090  00000-0  52888-3 0  9996
2 59112  97.5185 337.4308 0009692 318.6383  41.4126 15.36965618 77205
MO-122
1 60209U 24125G   25205.56796135  .00017937  00000-0  48787-3 0  9991
2 60209  97.2748  56.7136 0017229 340.8720  19.1876 15.37440950 58866
GRBBeta
1 60237U 24128C   25205.64908545  .00003574  00000-0  27180-3 0  9990
2 60237  61.9918 282.3776 0054927  67.1384 293.5493 15.02948279 56974
Curium One
1 60242U 24128H   25205.54156280  .00006779  00000-0  46605-3 0  9999
2 60242  61.9814 280.3604 0054828  63.3726 297.2968 15.05648357 57001
ROBUSTA-3A
1 60243U 24128J   25205.55836557  .00006740  00000-0  46991-3 0  9999
2 60243  61.9889 281.2826 0053890  61.0756 299.5726 15.05172360 56996
CatSat
1 60246U 24125J   25205.53521205  .00012153  00000-0  39645-3 0  9991
2 60246  97.2553  55.3716 0040092 294.7692  64.9380 15.31140489 56863
HYPERVIEW-1G (RS66S)
1 61772U 24199AP  25205.81529315  .00022642  00000-0  62397-3 0  9992
2 61772  97.3471  74.6128 0013923  38.5582 321.6654 15.37039735 83903
AO-123
1 61781U 24199AY  25205.81372495  .00006893  00000-0  24748-3 0  9995
2 61781  97.3490  72.9871 0016776  42.8070 317.4473 15.28857644 83795
ZIMSAT 2
1 61783U 24199BA  25205.69773384  .00042037  00000-0  93322-3 0  9999
2 61783  97.3444  75.4887 0013079  36.3458 323.8676 15.43502652 87100
HADES-R (SO-124)
1 62690U 25009CK  25205.46237228  .00044095  00000-0  14323-2 0  9994
2 62690  97.4081 286.1716 0001450 270.1270  89.9805 15.31792385 29019
HYDRA-T
1 62692U 25009CM  25205.43941772  .00045951  00000-0  14770-2 0  9997
2 62692  97.4086 286.2018 0001487 255.6910 104.4167 15.32119513 29012
JINJUSat 1B
1 63210U 25052A   25205.65910999  .00011967  00000-0  53517-3 0  9996
2 63210  97.4365  99.2241 0005215 144.2909 215.8676 15.21446213 20104
NUSHSAT 1
1 63211U 25052B   25205.64601963  .00013425  00000-0  59434-3 0  9999
2 63211  97.4356  99.2244 0005075 147.5585 212.5964 15.21764393 20104
TEVEL2-4
1 63213U 25052D   25205.66891127  .00012010  00000-0  53739-3 0  9997
2 63213  97.4270  99.0532 0003797 156.8087 203.3321 15.21430205 20105
TEVEL2-5
1 63214U 25052E   25205.60437658  .00011980  00000-0  53651-3 0  9995
2 63214  97.4272  98.9872 0003776 156.7661 203.3747 15.21402570 20091
TEVEL2-6
1 63215U 25052F   25205.60770870  .00011640  00000-0  52199-3 0  9991
2 63215  97.4272  98.9846 0003827 157.4313 202.7092 15.21362299 20091
TEVEL2-1
1 63217U 25052H   25205.62535930  .00011499  00000-0  51916-3 0  9999
2 63217  97.4249  98.9185 0003504 169.7171 190.4137 15.21134285 20098
TEVEL2-2
1 63218U 25052J   25205.69139573  .00011381  00000-0  51381-3 0  9996
2 63218  97.4251  98.9847 0003498 170.6864 189.4437 15.21139163 20102
TEVEL2-3
1 63219U 25052K   25205.69170395  .00011523  00000-0  52030-3 0  9994
2 63219  97.4251  98.9838 0003480 170.6271 189.5031 15.21131580 20102
TEVEL2-8
1 63237U 25052AD  25205.59573659  .00011897  00000-0  55650-3 0  9998
2 63237  97.4312  98.7641 0007131 204.5408 155.5489 15.19890396 20076
TEVEL2-9
1 63238U 25052AE  25205.13911147  .00012596  00000-0  59030-3 0  9990
2 63238  97.4318  98.3077 0007185 206.5600 153.5267 15.19809496 20003
TEVEL2-7
1 63239U 25052AF  25205.66876903  .00011344  00000-0  53236-3 0  9991
2 63239  97.4312  98.8207 0007167 204.9955 155.0934 15.19788656 20083
HYDRA-W
1 63490U 25052BL  25205.18842524  .00031755  00000-0  12639-2 0  9998
2 63490  97.4260  98.9130 0010557 203.9350 156.1398 15.25144051 20050
HADES-ICM (SO-125)
1 63492U 25052BN  25205.21749203  .00028645  00000-0  11596-2 0  9999
2 63492  97.4267  98.8838 0010568 208.4371 151.6291 15.24597629 20052
